[[{"header":{"parameterUnit":"m.s-1","parameterCategory":1,"la1":30.2991,"la2":30.254,"lo1":-89.0895,"lo2":-89.0444,"dy":0.0017,"dx":0.0017,"nx":28,"ny":28,"refTime":"2024-08-30T03:00:00:Z","depth":0,"parameterNumber":2,"parameterNumberName":"U-component_of_WINDS"},"data":[0,0,0,0,0,0,0,0,0,0,0,0,0,0,0,0,0,0,0,0,0,0,0,0,0,0,0,0,0,0,0,0,0,0,0,0,0,0,0,0,0,0,0,0,0,0,0,0,0,0,0,0,0,0,0,0,0,0,-4.8954,-4.8956,0,-4.9084,-4.9086,-4.9087,-4.8977,-4.8972,-4.8968,-4.8963,-4.9102,-4.911,-4.9118,0,0,0,0,0,0,0,0,0,0,0,0,0,-4.862,-4.8626,-4.8954,-4.8956,-4.8958,-4.9084,-4.9086,-4.9087,-4.8978,-4.8972,-4.8967,-4.8961,-4.91,-4.9109,-4.9119,0,0,0,0,0,0,0,0,0,0,0,0,0,-4.8759,-4.8629,-4.8954,-4.8918,-4.8916,-4.9083,-4.9086,-4.9088,-4.8979,-4.8972,-4.8965,-4.8959,-4.9097,-4.9108,-4.912,-4.9332,0,0,-4.9156,-4.9162,0,0,0,0,0,0,0,0,-4.8751,-4.8771,-4.8922,-4.8921,-4.8919,-4.9007,-4.9018,-4.917,-4.8981,-4.8955,-4.8963,-4.8955,-4.9077,-4.909,-4.9129,-4.9338,-4.9344,-4.9158,-4.9165,-4.917,-4.9173,0,0,0,0,0,0,0,-4.8742,-4.8765,-4.9006,-4.8924,-4.8922,-4.8898,-4.891,-4.9047,-4.9053,-4.8957,-4.8949,-4.8966,-4.9075,-4.9118,-4.9132,-4.9346,-4.9157,-4.9168,-4.9175,-4.918,-4.9738,-4.9745,0,0,0,0,0,0,-4.8735,-4.8758,-4.9002,-4.901,-4.8816,-4.891,-4.8923,-4.8986,-4.9051,-4.9055,-4.8972,-4.896,-4.9101,-4.9118,-4.9136,-4.9389,-4.917,-4.9181,-4.9188,-4.973,-4.9739,-4.9748,0,0,0,0,0,0,-4.8728,-4.8758,-4.8996,-4.8882,-4.891,-4.8923,-4.8994,-4.8992,-4.9035,-4.9062,-4.9064,-4.9014,-4.9096,-4.9119,-4.9284,-4.9392,-4.9186,-4.9197,-4.9721,-4.9733,-4.9743,-4.9895,0,0,0,0,0,0,-4.8719,-4.8756,-4.8834,-4.8884,-4.8917,-4.914,-4.9001,-4.9,-4.9055,-4.9042,-4.9103,-4.9106,-4.9093,-4.9267,-4.9296,-4.9405,-4.9207,-4.9711,-4.9726,-4.974,-4.988,-4.991,-4.9936,0,0,0,0,0,-4.8707,-4.8872,-4.8838,-4.8868,-4.9015,-4.9146,-4.9165,-4.9144,-4.9065,-4.9145,-4.9163,-4.9104,-4.9376,-4.9284,-4.9316,-4.943,-4.9704,-4.9722,-4.9739,-4.9868,-4.9904,-4.9935,0,0,0,0,0,0,-4.8835,-4.8878,-4.8841,-4.9027,-4.9084,-4.9127,-4.9227,-4.9183,-4.9265,-4.9249,-4.9222,-4.9237,-4.941,-4.9437,-4.9334,-4.964,-4.9528,-4.9552,-4.9615,-4.965,-4.9677,-4.9666,-4.9217,0,0,0,0,0,-4.8885,-4.8986,-4.9019,-4.918,-4.921,-4.9215,-4.9271,-4.9251,-4.9309,-4.9333,-4.9362,-4.9423,-4.9522,-4.9588,-4.9681,-4.9885,-4.9897,-4.998,-5.0008,-5.003,-5.0051,-5.0162,-5.0199,-4.9804,-4.9804,-4.9804,0,0,-4.8989,-4.9025,-4.9091,-4.9207,-4.9248,-4.9356,-4.9235,-4.9354,-4.9434,-4.9351,-4.9507,-4.9533,-4.9599,-4.9784,-4.9868,-4.9812,-5.0164,-5.0052,-5.007,-5.0078,-5.0184,-5.0221,-5.0254,-4.9816,-4.9814,-4.9812,0,0,-4.9233,-4.927,-4.9408,-4.9453,-4.9517,-4.9519,-4.9553,-4.9605,-4.9617,-4.9774,-4.9715,-4.9812,-4.9983,-5.0032,-5.008,-5.0348,-5.0298,-5.038,-5.0524,-5.0633,-5.0664,-5.0691,-5.0786,-5.0821,-5.0401,-5.0402,-5.0402,0,-4.9354,-4.9511,-4.9486,-4.9609,-4.9663,-4.9593,-4.9734,-4.978,-4.9872,-4.9912,-4.9849,-5.0063,-5.0103,-5.03,-5.0365,-5.0407,-5.0446,-5.0371,-5.0661,-5.0688,-5.0714,-5.0804,-5.084,-5.0411,-5.041,-5.0409,-5.0408,0,-4.9657,-4.9768,-4.9872,-4.9961,-5.0028,-5.016,-5.0157,-5.0228,-5.0204,-5.0214,-5.0376,-5.0422,-5.0523,-5.0569,-5.0547,-5.0764,-5.0728,-5.0664,-5.055,-5.0761,-5.0845,-5.088,-5.0424,-5.0421,-5.0418,-5.0416,0,0,-4.998,-5.0057,-5.0095,-5.0136,-5.0204,-5.029,-5.0421,-5.0519,-5.058,-5.0648,-5.0758,-5.0906,-5.0848,-5.0903,-5.0886,-5.0982,-5.1192,-5.0906,-5.0907,-5.0957,-5.1435,-5.1481,-5.1521,-5.116,-5.1167,-5.1172,-5.1429,0,-5.0226,-5.045,-5.0433,-5.0646,-5.0748,-5.0686,-5.0801,-5.0857,-5.0871,-5.0963,-5.0979,-5.1084,-5.1,-5.1032,-5.1125,-5.1146,-5.1287,-5.1128,-5.1263,-5.1268,-5.1245,-5.1566,-5.1614,-5.1854,-5.1462,-5.1468,-5.1472,0,-5.054,-5.0618,-5.084,-5.0895,-5.0937,-5.104,-5.1129,-5.1218,-5.1281,-5.1285,-5.1349,-5.1317,-5.1452,-5.1338,-5.1524,-5.1416,-5.1472,-5.1491,-5.15,-5.151,-5.138,-5.1583,-5.193,-5.1966,-5.1524,-5.152,-5.1516,0,-5.0753,-5.0914,-5.1067,-5.1105,-5.1172,-5.1246,-5.1278,-5.1335,-5.1396,-5.1476,-5.1515,-5.1611,-5.1663,-5.174,-5.1736,-5.1653,-5.1926,-5.181,-5.1933,-5.1934,-5.1991,-5.1987,-5.235,-5.2031,-5.203,-5.203,-5.2029,0,-5.1027,-5.1165,-5.1164,-5.1258,-5.1413,-5.1395,-5.1549,-5.1574,-5.1626,-5.1726,-5.168,-5.1776,-5.1766,-5.1863,-5.1862,-5.2017,-5.2042,-5.205,-5.2047,-5.2052,-5.2051,-5.2086,-5.2068,-5.2039,-5.2037,-5.2035,-5.2033,0,-5.1288,-5.1293,-5.1456,-5.1508,-5.1525,-5.1636,-5.1681,-5.1773,-5.1785,-5.1912,-5.1942,-5.1961,-5.2074,-5.2078,-5.2209,-5.2208,-5.2397,-5.2377,-5.2374,-5.237,-5.2492,-5.248,-5.2888,-5.2941,-5.2589,-5.2593,-5.2595,0,-5.1461,-5.1566,-5.1629,-5.1692,-5.1729,-5.1831,-5.1893,-5.1882,-5.1949,-5.2031,-5.2113,-5.2221,-5.2306,-5.249,-5.2518,-5.2618,-5.2599,-5.2736,-5.2613,-5.2616,-5.2599,-5.2592,-5.2603,-5.2758,-5.2762,-5.2765,-5.2768,0,-5.1768,-5.1766,-5.1855,-5.1948,-5.2023,-5.2095,-5.2163,-5.2218,-5.2215,-5.2293,-5.2407,-5.2473,-5.2607,-5.2715,-5.2813,-5.2849,-5.2809,-5.2807,-5.284,-5.2845,-5.2839,-5.2843,-5.2437,-5.2797,-5.2794,-5.2792,-5.279,-5.2789,-5.1989,-5.208,-5.2139,-5.2242,-5.2291,-5.2356,-5.2444,-5.2468,-5.2562,-5.2668,-5.2657,-5.2784,-5.2849,-5.2976,-5.3021,-5.3122,-5.3075,-5.3124,-5.3136,-5.3147,-5.3159,-5.2825,-5.314,-5.3139,-5.3138,-5.3138,-5.3137,0,-5.2292,-5.2328,-5.2423,-5.2518,-5.26,-5.2555,-5.2629,-5.27,-5.2812,-5.2875,-5.296,-5.3093,-5.3199,-5.3236,-5.334,-5.3414,-5.3398,-5.3441,-5.3435,-5.3444,-5.3196,-5.3156,-5.3452,-5.3452,-5.3452,-5.3452,-5.3452,-5.3452,-5.2459,-5.261,-5.2616,-5.2793,-5.2829,-5.2951,-5.2997,-5.3058,-5.3108,-5.3257,-5.3344,-5.3368,-5.3422,-5.353,-5.3626,-5.3634,-5.3674,-5.3725,-5.3726,-5.3493,-5.3461,-5.3431,-5.3393,-5.3734,-5.3735,-5.3965,-5.3967,-5.3968]},{"header":{"parameterUnit":"m.s-1","parameterCategory":1,"la1":30.2991,"la2":30.254,"lo1":-89.0895,"lo2":-89.0444,"dy":0.0017,"dx":0.0017,"nx":28,"ny":28,"refTime":"2024-08-30T03:00:00:Z","depth":0,"parameterNumber":3,"parameterNumberName":"V-component_of_WINDS"},"data":[0,0,0,0,0,0,0,0,0,0,0,0,0,0,0,0,0,0,0,0,0,0,0,0,0,0,0,0,0,0,0,0,0,0,0,0,0,0,0,0,0,0,0,0,0,0,0,0,0,0,0,0,0,0,0,0,0,0,1.4466,1.4467,0,1.452,1.4521,1.4522,1.4438,1.4435,1.4432,1.4429,1.4492,1.4496,1.4501,0,0,0,0,0,0,0,0,0,0,0,0,0,1.4299,1.4303,1.4466,1.4467,1.4467,1.452,1.4521,1.4522,1.4438,1.4435,1.4431,1.4428,1.4491,1.4496,1.4501,0,0,0,0,0,0,0,0,0,0,0,0,0,1.4365,1.4304,1.4466,1.4432,1.4429,1.452,1.4521,1.4522,1.4439,1.4435,1.443,1.4426,1.4489,1.4495,1.4502,1.4631,0,0,1.4522,1.4525,0,0,0,0,0,0,0,0,1.4361,1.4371,1.4436,1.4434,1.4432,1.4467,1.4485,1.4559,1.444,1.4436,1.4429,1.4424,1.4488,1.4494,1.4515,1.4634,1.4636,1.4523,1.4527,1.453,1.4531,0,0,0,0,0,0,0,1.4357,1.4368,1.4488,1.4437,1.4435,1.4417,1.4421,1.4499,1.4486,1.4436,1.443,1.4437,1.4486,1.4508,1.4515,1.4637,1.4523,1.4528,1.4533,1.4535,1.4868,1.4873,0,0,0,0,0,0,1.4355,1.4365,1.4486,1.4489,1.4385,1.4424,1.4428,1.4461,1.4485,1.4484,1.444,1.4433,1.4499,1.4508,1.4517,1.467,1.453,1.4536,1.454,1.4863,1.4869,1.4875,0,0,0,0,0,0,1.4352,1.4367,1.4484,1.4426,1.4439,1.4431,1.4468,1.4464,1.4486,1.4488,1.4487,1.4465,1.4496,1.4508,1.4603,1.4671,1.4539,1.4545,1.4858,1.4865,1.4872,1.4977,0,0,0,0,0,0,1.4347,1.4366,1.4412,1.4427,1.4442,1.4566,1.4472,1.4468,1.4497,1.4487,1.4511,1.4511,1.4494,1.4594,1.461,1.4678,1.455,1.4851,1.4861,1.487,1.4967,1.4987,1.5004,0,0,0,0,0,1.4342,1.4441,1.4415,1.443,1.45,1.457,1.4579,1.4555,1.4503,1.4551,1.4553,1.451,1.4662,1.4604,1.4622,1.4693,1.4847,1.4858,1.4869,1.4959,1.4983,1.5003,0,0,0,0,0,0,1.4436,1.4442,1.4413,1.4519,1.4545,1.4556,1.4615,1.4581,1.4623,1.4613,1.4584,1.459,1.4692,1.4703,1.4638,1.482,1.4746,1.4761,1.4809,1.4832,1.485,1.4844,1.4555,0,0,0,0,0,1.4469,1.4522,1.4526,1.462,1.4634,1.4623,1.4653,1.4632,1.4658,1.4669,1.4678,1.4707,1.4761,1.4797,1.4848,1.497,1.4975,1.5028,1.5046,1.5061,1.5074,1.5141,1.5165,1.4911,1.491,1.491,0,0,1.4537,1.4548,1.4583,1.4639,1.4656,1.4715,1.4632,1.4698,1.4742,1.468,1.4769,1.4778,1.4809,1.4918,1.4967,1.493,1.5146,1.5075,1.5087,1.5091,1.5155,1.5179,1.52,1.4918,1.4917,1.4915,0,0,1.4692,1.4705,1.4785,1.4804,1.483,1.4823,1.4843,1.486,1.4862,1.4951,1.4906,1.4961,1.5055,1.5078,1.5103,1.5272,1.5235,1.529,1.5384,1.545,1.547,1.5488,1.5548,1.557,1.5303,1.5304,1.5304,0,1.4774,1.4859,1.4831,1.49,1.4927,1.4872,1.4954,1.4975,1.5018,1.504,1.4997,1.5115,1.5132,1.5247,1.5289,1.5311,1.5334,1.5286,1.5469,1.5486,1.5503,1.556,1.5583,1.531,1.5309,1.5309,1.5308,0,1.4959,1.5019,1.5081,1.5122,1.5156,1.5232,1.5219,1.5258,1.5236,1.5234,1.5328,1.5347,1.5401,1.5427,1.5407,1.5541,1.5517,1.5473,1.5397,1.5534,1.5587,1.5609,1.5319,1.5317,1.5315,1.5313,0,0,1.5171,1.5197,1.522,1.5239,1.5266,1.5313,1.5389,1.544,1.5474,1.5508,1.5571,1.5653,1.5613,1.5641,1.5624,1.5683,1.5816,1.5631,1.5632,1.5664,1.5966,1.5997,1.6023,1.5793,1.5797,1.58,1.5963,0,1.5325,1.5451,1.543,1.5553,1.561,1.5561,1.5627,1.5653,1.5655,1.5705,1.5709,1.5767,1.571,1.5727,1.5782,1.5788,1.5876,1.5776,1.5853,1.5856,1.5844,1.6051,1.6084,1.6236,1.5984,1.5987,1.599,0,1.5519,1.5558,1.5687,1.5707,1.573,1.5789,1.5835,1.5884,1.5914,1.5912,1.5945,1.5918,1.5997,1.5922,1.6032,1.5964,1.5996,1.6004,1.6009,1.6014,1.5929,1.606,1.6284,1.6306,1.6022,1.602,1.6017,0,1.566,1.5745,1.5833,1.5851,1.5877,1.592,1.5934,1.5959,1.5992,1.6034,1.6056,1.6108,1.6136,1.6178,1.6167,1.6114,1.628,1.6204,1.6281,1.6282,1.6316,1.6313,1.6547,1.6339,1.6339,1.6339,1.6338,0,1.5833,1.5914,1.5897,1.5951,1.6041,1.6019,1.611,1.6118,1.6142,1.6199,1.6162,1.6217,1.6201,1.6256,1.6249,1.6341,1.6355,1.6357,1.6353,1.6359,1.6358,1.6377,1.6365,1.6345,1.6343,1.6342,1.6341,0,1.6004,1.5995,1.6088,1.6106,1.6113,1.6179,1.6196,1.6248,1.6249,1.6322,1.6338,1.6339,1.6403,1.6397,1.6469,1.6465,1.6578,1.6564,1.6567,1.6563,1.664,1.6633,1.6892,1.6925,1.6698,1.67,1.6702,0,1.6113,1.6173,1.6198,1.6233,1.6249,1.6306,1.6339,1.6321,1.6358,1.6399,1.6447,1.6507,1.6554,1.6659,1.6668,1.6724,1.6709,1.6796,1.6717,1.6721,1.6709,1.6705,1.6711,1.6811,1.6814,1.6816,1.6817,0,1.6308,1.6302,1.6349,1.6397,1.6438,1.6475,1.6509,1.654,1.6527,1.6571,1.6634,1.667,1.6744,1.6805,1.6858,1.6875,1.6845,1.6843,1.6863,1.6868,1.6867,1.6868,1.6608,1.6836,1.6834,1.6833,1.6832,1.6831,1.645,1.6503,1.6529,1.6584,1.6608,1.6641,1.6691,1.6698,1.675,1.6807,1.6795,1.6867,1.69,1.6968,1.6991,1.7049,1.7018,1.7048,1.7055,1.7063,1.7071,1.686,1.7059,1.7059,1.7058,1.7058,1.7058,0,1.6643,1.6658,1.6709,1.6757,1.6802,1.6769,1.6806,1.6846,1.6909,1.6941,1.6987,1.7062,1.7122,1.7137,1.7195,1.7239,1.7227,1.7255,1.725,1.7255,1.7096,1.7071,1.7263,1.7263,1.7263,1.7263,1.7263,1.7263,1.6748,1.6834,1.6832,1.6932,1.6947,1.7015,1.7039,1.7071,1.7096,1.718,1.7229,1.7238,1.7264,1.7324,1.7379,1.7382,1.7405,1.7438,1.7436,1.7287,1.7266,1.7246,1.7223,1.7444,1.7444,1.7589,1.7591,1.7592]}]]